DW5499 Weather Reports


Display with metric or nautical units.
time (UTC)temp
F
wind
direction
speed
MPH
gust
MPH
rain 1hr
in
rain 24hr
in
rain mn
in
humidity
%
barometer
mb
20260504000135 78 345 2.0 5.0 0.00 0.00 0.00 38 1008.0
20260503234554 78 335 2.0 6.0 0.00 0.00 0.00 37 1008.1
20260503233053 79 287 1.0 5.0 0.00 0.00 0.00 36 1008.2
20260503231552 79 294 3.0 7.0 0.00 0.00 0.00 35 1008.3
20260503230054 79 256 2.0 7.0 0.00 0.00 0.00 34 1008.5
20260503224548 80 247 1.0 9.0 0.00 0.00 0.00 34 1008.7
20260503223048 81 277 4.0 10.0 0.00 0.00 0.00 33 1008.7
20260503221546 80 345 2.0 7.0 0.00 0.00 0.00 34 1008.8
20260503220046 80 232 2.0 9.0 0.00 0.00 0.00 35 1008.9
20260503214543 80 261 4.0 11.0 0.00 0.00 0.00 34 1009.1
20260503213042 80 296 3.0 7.0 0.00 0.00 0.00 36 1009.3
20260503211540 80 239 6.0 11.0 0.00 0.00 0.00 34 1009.5
20260503210038 80 245 5.0 12.0 0.00 0.00 0.00 35 1009.7
20260503204535 79 275 3.0 10.0 0.00 0.00 0.00 35 1009.9
20260503203036 79 247 6.0 15.0 0.00 0.00 0.00 36 1010.1
20260503201532 79 224 5.0 13.0 0.00 0.00 0.00 37 1010.2
20260503200030 79 335 6.0 13.0 0.00 0.00 0.00 36 1010.4
20260503194529 78 224 3.0 13.0 0.00 0.00 0.00 36 1010.5
20260503193025 78 234 4.0 14.0 0.00 0.00 0.00 37 1010.7
20260503191522 77 199 4.0 14.0 0.00 0.00 0.00 38 1010.8
20260503190024 77 245 9.0 14.0 0.00 0.00 0.00 38 1011.0
20260503184520 77 255 7.0 12.0 0.00 0.00 0.00 38 1011.2
20260503183015 76 245 6.0 14.0 0.00 0.00 0.00 42 1011.4
20260503181511 75 237 4.0 14.0 0.00 0.00 0.00 43 1011.7
20260503180007 74 232 7.0 17.0 0.00 0.00 0.00 44 1012.1
20260503174507 73 261 9.0 21.0 0.00 0.00 0.00 44 1012.4
20260503173005 72 213 7.0 17.0 0.00 0.00 0.00 44 1012.6
20260503171613 71 200 11.0 20.0 0.00 0.00 0.00 44 1012.7
20260503170106 71 269 5.0 18.0 0.00 0.00 0.00 44 1012.8
20260503081537 50 159 5.0 9.0 0.00 0.00 0.00 57 1016.3
20260503071540 50 160 5.0 9.0 0.00 0.00 0.00 57 1016.7
20260503054521 52 206 5.0 8.0 0.00 0.00 0.00 53 1017.3
20260503053013 52 153 5.0 7.0 0.00 0.00 0.00 53 1017.5
20260503051507 52 187 3.0 7.0 0.00 0.00 0.00 52 1017.6
20260503050006 53 152 4.0 8.0 0.00 0.00 0.00 51 1017.7
20260503044506 53 177 5.0 9.0 0.00 0.00 0.00 50 1018.2
20260503043000 53 150 2.0 7.0 0.00 0.00 0.00 49 1018.2
20260503041605 54 191 4.0 7.0 0.00 0.00 0.00 49 1018.4
20260503040058 54 172 2.0 7.0 0.00 0.00 0.00 48 1018.5
20260503034557 54 194 3.0 7.0 0.00 0.00 0.00 48 1018.7
20260503033055 54 193 4.0 7.0 0.00 0.00 0.00 48 1018.8
20260503031555 55 181 3.0 7.0 0.00 0.00 0.00 48 1019.0
20260503030100 55 182 4.0 7.0 0.00 0.00 0.00 47 1018.9
20260503024554 56 201 4.0 7.0 0.00 0.00 0.00 46 1018.9
20260503023105 56 192 4.0 8.0 0.00 0.00 0.00 44 1018.9
20260503021558 57 181 3.0 6.0 0.00 0.00 0.00 44 1018.8
20260503020058 58 205 4.0 6.0 0.00 0.00 0.00 42 1018.9
20260503014552 58 201 3.0 5.0 0.00 0.00 0.00 41 1018.8
20260503013055 59 223 1.0 4.0 0.00 0.00 0.00 38 1018.8
20260503011610 61 195 3.0 5.0 0.00 0.00 0.00 35 1018.8
20260503010056 61 197 4.0 6.0 0.00 0.00 0.00 33 1018.8
20260503004551 62 212 3.0 6.0 0.00 0.00 0.00 32 1018.8
20260503003052 63 180 3.0 10.0 0.00 0.00 0.00 31 1018.8
20260503001551 64 228 1.0 9.0 0.00 0.00 0.00 30 1018.9